Location: Key Biscayne
(25.6930°N, 80.1630°W)
Time: 22:27:55
(UTC-05:00)

Vanguard 1 Rocket - All Passes

Search period start: 16 January 2018 00:00
Search period end: 26 January 2018 00:00
Orbit: 656 x 4222 km, 34.3° (Epoch: 15 January)

Date Brightness Start Highest point End Pass type
(mag) Time Alt. Az. Time Alt. Az. Time Alt. Az.
16 Jan - 03:39:37 10° S 03:52:20 20° SSE 04:01:18 10° ESE visible
16 Jan - 06:06:29 10° SW 06:22:01 52° SSE 06:30:03 10° ENE visible
16 Jan - 08:38:27 10° WSW 08:48:43 62° NNW 08:54:20 10° ENE daylight
16 Jan - 11:09:32 10° WNW 11:14:42 32° N 11:18:44 10° ENE daylight
16 Jan - 13:35:43 10° WNW 13:40:07 80° NNE 13:45:22 10° ESE daylight
16 Jan - 16:01:30 10° WSW 16:05:24 20° SSW 16:10:42 10° SSE daylight
17 Jan - 02:30:57 10° SSE 02:37:59 12° SSE 02:44:01 10° SE visible
17 Jan - 04:52:34 10° SSW 05:09:21 38° SSE 05:18:49 10° E visible
17 Jan - 07:23:38 10° WSW 07:37:18 90° NNW 07:44:07 10° ENE daylight
17 Jan - 09:56:20 10° WNW 10:03:27 38° N 10:08:05 10° ENE daylight
17 Jan - 12:24:46 10° WNW 12:29:23 45° NNE 12:33:43 10° E daylight
17 Jan - 14:50:07 10° W 14:54:15 34° SSW 14:59:50 10° SE daylight
18 Jan - 03:39:32 10° SSW 03:55:57 27° SSE 04:06:32 10° E visible
18 Jan - 06:08:40 10° SW 06:25:22 66° SSE 06:33:40 10° ENE visible
18 Jan - 08:41:56 10° W 08:52:08 53° NNW 08:57:47 10° ENE daylight
18 Jan - 11:12:59 10° WNW 11:18:21 35° N 11:22:28 10° ENE daylight
18 Jan - 13:39:09 10° WNW 13:43:32 67° SSW 13:48:37 10° SE daylight
18 Jan - 16:07:03 10° SW 16:08:59 12° SSW 16:11:11 10° S daylight
19 Jan - 02:28:14 10° S 02:41:49 18° SSE 02:52:06 10° ESE visible
19 Jan - 04:54:04 10° SW 05:12:45 49° SSE 05:22:43 10° E visible
19 Jan - 07:26:42 10° WSW 07:40:37 75° NNW 07:47:34 10° ENE daylight
19 Jan - 09:59:56 10° WNW 10:07:04 37° N 10:11:42 10° ENE daylight
19 Jan - 12:28:04 10° WNW 12:32:54 63° NNE 12:37:21 10° ESE daylight
19 Jan - 14:54:13 10° W 14:57:42 21° SSW 15:02:01 10° SSE daylight
20 Jan - 01:23:02 10° SSE 01:26:52 11° SE 01:30:29 10° SE visible
20 Jan - 03:40:15 10° SSW 03:59:24 36° SSE 04:10:58 10° E visible
20 Jan - 06:11:11 10° WSW 06:28:39 81° SSE 06:37:10 10° ENE visible
20 Jan - 08:45:29 10° W 08:55:37 48° NNW 09:01:17 10° ENE daylight
20 Jan - 11:16:21 10° WNW 11:21:59 42° N 11:26:13 10° E daylight
20 Jan - 13:42:43 10° W 13:46:54 41° SSW 13:51:36 10° SE daylight
21 Jan - 02:27:45 10° SSW 02:45:22 26° SE 02:57:45 10° E visible
21 Jan - 04:55:56 10° SW 05:16:03 61° SSE 05:26:25 10° ENE visible
21 Jan - 07:29:58 10° W 07:43:58 65° NNW 07:51:00 10° ENE daylight
21 Jan - 10:03:25 10° WNW 10:10:43 39° N 10:15:24 10° ENE daylight
21 Jan - 12:31:24 10° WNW 12:36:21 88° SSW 12:40:49 10° ESE daylight
21 Jan - 14:59:20 10° SW 15:01:09 12° SSW 15:03:08 10° S daylight
22 Jan - 01:17:44 10° S 01:30:42 16° SE 01:41:28 10° ESE visible
22 Jan - 03:41:27 10° SSW 04:02:43 46° SSE 04:14:59 10° E visible
22 Jan - 06:13:59 10° WSW 06:31:54 86° NNW 06:40:37 10° ENE visible
22 Jan - 08:49:03 10° W 08:59:10 45° N 09:04:52 10° ENE daylight
22 Jan - 11:19:37 10° WNW 11:25:34 54° NNE 11:29:56 10° E daylight
22 Jan - 13:46:34 10° W 13:50:15 25° SSW 13:54:12 10° SSE daylight
23 Jan - 02:28:11 10° SSW 02:48:43 34° SE 03:02:28 10° E visible
23 Jan - 04:58:09 10° SW 05:19:15 74° SSE 05:29:56 10° ENE visible
23 Jan - 07:33:24 10° W 07:47:22 58° NNW 07:54:29 10° ENE daylight
23 Jan - 10:06:49 10° WNW 10:14:23 43° N 10:19:08 10° ENE daylight
23 Jan - 12:34:49 10° WNW 12:39:43 56° SSW 12:44:03 10° SE daylight
24 Jan - 01:16:41 10° S 01:34:11 23° SE 01:47:55 10° E visible
24 Jan - 03:43:05 10° SW 04:05:54 57° SSE 04:18:43 10° ENE visible
24 Jan - 06:17:01 10° WSW 06:35:10 75° NNW 06:44:03 10° ENE visible
24 Jan - 08:52:35 10° WNW 09:02:48 45° N 09:08:31 10° ENE daylight
24 Jan - 11:22:53 10° WNW 11:29:05 75° NNE 11:33:32 10° ESE daylight
24 Jan - 13:51:02 10° WSW 13:53:32 15° SW 13:56:07 10° S daylight
25 Jan - 00:09:05 10° SSE 00:19:10 13° SE 00:28:27 10° ESE visible
25 Jan - 02:29:11 10° SSW 02:51:53 43° SE 03:06:37 10° E visible
25 Jan - 05:00:40 10° WSW 05:22:25 86° SSE 05:33:22 10° ENE visible
25 Jan - 07:36:54 10° W 07:50:51 53° NNW 07:58:01 10° ENE daylight
25 Jan - 10:10:06 10° WNW 10:18:01 52° NNE 10:22:52 10° E daylight
25 Jan - 12:38:24 10° W 12:42:59 34° SW 12:47:00 10° SSE daylight
